Regional Weather Roundup
Issued by NWS Wilmington, NC

Current Version | Previous Version | Text Only | Print | Product List | Glossary On
Versions: 1 2 3 4 5 6 7 8 9 10 11 12 13 14 15 16 17 18 19 20 21 22 23 24 25 26 27 28 29 30 31 32 33 34 35 36 37 38 39 40 41 42 43 44 45 46 47 48 49 50
000
ASUS42 KILM 012310
RWRILM
RWRILM
REGIONAL HOURLY WEATHER ROUNDUP
NATIONAL WEATHER SERVICE WILMINGTON NC
600 PM EST SUN FEB 01 2015

NOTE: "FAIR" INDICATES FEW OR NO CLOUDS BELOW 12,000 FEET WITH NO
SIGNIFICANT WEATHER AND/OR OBSTRUCTIONS TO VISIBILITY.

...............WFO WILMINGTON COUNTY WARNING AREA...............

......COASTAL NC AND SC COUNTIES......

CITY           SKY/WX    TMP DP  RH WIND       PRES   REMARKS
WILMINGTON     CLOUDY    54  42  64 SE3       30.11F
SOUTHPORT      CLOUDY    57  48  73 S5        30.11F
N MYRTLE BEACH MOCLDY    57  46  66 S6        30.10F
MYRTLE BEACH   MOCLDY    61  46  59 SW8         N/A

......INLAND NC AND SC COUNTIES.......

CITY           SKY/WX    TMP DP  RH WIND       PRES   REMARKS
LUMBERTON      CLOUDY    58  38  47 SE8       30.06F
ELIZABETHTOWN  CLOUDY    57  36  45 SE5       30.08F
WHITEVILLE     NOT AVBL
FLORENCE       CLOUDY    62  44  51 S9        30.04F
DARLINGTON     CLOUDY    61  43  51 S9        30.04F

....................REST OF NORTH CAROLINA......................

.........EASTERN NC.........

CITY           SKY/WX    TMP DP  RH WIND       PRES   REMARKS
CAPE HATTERAS  CLOUDY    51  40  65 SW3       30.16F
JACKSONVILLE   CLOUDY    54  37  54 S6        30.12F
MOREHEAD CITY  MOCLDY    48  41  76 E5        30.15S
KENANSVILLE    CLOUDY    56  36  47 CALM      30.11F
NEW BERN       CLOUDY    55  36  48 S6        30.14F
ELIZABETH CITY CLOUDY    44  32  62 SE6       30.13F

.........CENTRAL NC.........

CITY           SKY/WX    TMP DP  RH WIND       PRES   REMARKS
RALEIGH DURHAM CLOUDY    53  28  38 S9        30.04F
ROCKY MOUNT    CLOUDY    51  24  34 SE5       30.07F
ROANOKE RAPIDS NOT AVBL
FAYETTEVILLE   CLOUDY    57  38  48 S12       30.06F
HOFFMAN        CLOUDY    54  39  56 SE6       30.04F

.........WESTERN NC.........

CITY           SKY/WX    TMP DP  RH WIND       PRES   REMARKS
CHARLOTTE      CLOUDY    55  37  50 SE9       29.98F
GREENSBORO     LGT RAIN  51  33  50 S13       29.97F
HICKORY        NOT AVBL
BOONE          NOT AVBL
ASHEVILLE      NOT AVBL

.....................REST OF SOUTH CAROLINA.....................

.........EASTERN SC.........

CITY           SKY/WX    TMP DP  RH WIND       PRES   REMARKS
CHARLESTON     CLOUDY    62  50  64 S6        30.07F
BEAUFORT MCAS  MOCLDY    59  50  72 S5        30.06F
HILTON HEAD    CLEAR     59  50  72 S5        30.08F

.........CENTRAL SC.........

CITY           SKY/WX    TMP DP  RH WIND       PRES   REMARKS
COLUMBIA       CLOUDY    64  45  49 S9        30.00F
ORANGEBURG     MOCLDY    64  45  49 S12       30.03F
SUMTER SHAW    CLOUDY    62  46  55 S8        30.01F

.........WESTERN SC.........

CITY           SKY/WX    TMP DP  RH WIND       PRES   REMARKS
GREENVILLE     NOT AVBL
ROCK HILL      CLOUDY    57  41  55 VRB6      29.97F
ANDERSON       RAIN      48  45  89 E5        29.95F
CLEMSON        NOT AVBL
GREENWOOD      CLOUDY    60  45  57 S9        29.97F


...................COASTAL AND OFFSHORE REPORTS..................

................LOCAL PIERS AND NC RESERVE................


STATION/POSITION TIME  SKY/WX   TEMP    WIND        PRES    VSBY
                                AIR SEA DIR/SP/G
                 (UTC)          (F)     (DEG/KT/KT) (MB)    (MI)
JOHNY MRCER PIER 2300            53 54   30/  1/  1 1019.3F
NC RESRV MASNBRO 2200            55     130/  2     1021.0S
OCEAN CREST PIER 2300            56 53  200/  3/  3 1019.2F
SPRINGMAID  PIER 2300            54 49   CALM  /  1 1019.2F


................COASTAL AND OFFSHORE BUOYS................


STATION/POSITION TIME  SKY/WX   TEMP    WIND        PRES    VSBY
                                AIR SEA DIR/SP/G
                 (UTC)          (F)     (DEG/KT/KT) (MB)    (MI)
DIMNDSHOAL 41025 2300            60 71  230/ 14/ 19 1021.0F
WVE H/P(F/S)=  4/ 9 WND WVE H/P(F/S)=  2/ 3 SWL H/P/D(F/S/D)=  3/ 60/ 9

CAPE LOOKOUT     2200            51     100/  4/  5 1020.8F
ONSLOW BAY 41036 NOT AVBL
5 WRITEBCH 41038 2200            55 53  150/  6/  6 1020.2F
MASONBORO  41110 2300               53                N/A
WVE H/P(F/S)=  2/11 WND WVE H/P(F/S)=  2/10

WILM HARBR 41108 2300               53                N/A
WVE H/P(F/S)=  2/ 4 WND WVE H/P(F/S)=  2/ 4

27WRITEBCH 41037 NOT AVBL
FRYING PAN 41013 2300            64 64  200/ 19/ 23 1020.4F
WVE H/P(F/S)=  4/ 4 WND WVE H/P(F/S)=  3/ 4 SWL H/P/D(F/S/D)=  2/ 10/11

SUNST NRSH 41024 2200            54      CALM  /  4   N/A
CAPRS NRSH 41029 2200            57     180/  6/  8   N/A
EDISTO     41004 2300            67 71  170/ 21/ 27 1017.8F
WVE H/P(F/S)=  5/ 4 WND WVE H/P(F/S)=  3/ 4 SWL H/P/D(F/S/D)=  3/11



..........OFFSHORE BUOYS BEYOND 100 NM OFFSHORE...........
.....IN A TRIANGLE---HAT TO BERMUDA TO BAHAMAS TO HAT.....


STATION/POSITION TIME  SKY/WX   TEMP    WIND        PRES    VSBY
                                AIR SEA DIR/SP/G
                 (UTC)          (F)     (DEG/KT/KT) (MB)    (MI)
150E HAT   41001 NOT AVBL
W BERMUDA  41048 2214            60 70  320/  8/ 12 1025.2R
WVE H/P(F/S)= 11/12 WND WVE H/P(F/S)=  2/ 4 SWL H/P/D(F/S/D)= 11/360/12

ATLANTIC S 41049 2151            67 74   20/ 12/ 17 1022.8R
WVE H/P(F/S)= 15/12 WND WVE H/P(F/S)=  3/ 5

E BAHAMAS  41046 2244            72 78   80/ 16/ 19 1022.4R
WVE H/P(F/S)= 10/12 WND WVE H/P(F/S)=  5/ 6 SWL H/P/D(F/S/D)= 10/350/12

NE BAHAMAS 41047 2211            66 75   80/ 12/ 17 1024.1
WVE H/P(F/S)= 10/12 WND WVE H/P(F/S)=  3/ 5 SWL H/P/D(F/S/D)= 10/ 10/12

120E CANVRL41010 2300            69 75  140/ 17/ 21 1020.6F
WVE H/P(F/S)=  6/11 WND WVE H/P(F/S)=  3/ 6 SWL H/P/D(F/S/D)=  5/ 50/11


END


USA.gov is the U.S. government's official web portal to all federal, state and local government web resources and services.